CYGNUS NG-11            
1 44188U 19022A   19320.87594992  .00000362  00000-0  22531-4 0  9995
2 44188  51.6308 337.7764 0005958 126.0298 234.1237 15.33392301 32863
ORCA-1                  
1 44415U 19022E   19321.12832996  .00001184  00000-0  53074-4 0  9995
2 44415  51.6443 338.7044 0011242 272.0270  87.9422 15.29614454 15595
QUANTUM-RADAR 3         
1 44416U 19022F   19320.46828429  .00002637  00000-0  10217-3 0  9993
2 44416  51.6434 341.7997 0011249 269.8143  90.1549 15.29842284 15474
RFTSAT                  
1 44417U 19022G   19320.27340549  .00001887  00000-0  76836-4 0  9991
2 44417  51.6446 342.7484 0011383 268.7613  91.2063 15.29763549 15489
NARSSCUBE-2             
1 44418U 19022H   19320.85633825  .00002876  00000-0  11003-3 0  9991
2 44418  51.6441 339.8936 0011675 270.3109  89.6534 15.29918359 15572
AEROCUBE 10B (DOUGSAT)  
1 44484U 19022C   19320.74896090  .00002002  00000-0  81238-4 0  9996
2 44484  51.6438 340.6629 0009570 262.3602  97.6291 15.29549095 15521
AEROCUBE 10A (JIMSAT)   
1 44485U 19022D   19321.13851411  .00001711  00000-0  71282-4 0  9993
2 44485  51.6437 338.7641 0009671 264.7900  95.1977 15.29532737 15598
AEROCUBE 10 PROBE       
1 44516U 19022J   19295.45831100  .00007880  00000-0  25175-3 0  9998
2 44516  51.6352 100.6031 0007014  45.2503 314.8993 15.33371878  8625
SEEKER                  
1 44533U 19022K   19320.49075000 -.00000057  00000-0  10400-4 0  9995
2 44533  51.6472 341.1549 0010778 250.0878 109.8942 15.30265644  9374